SXM-7

Last updated on Sun Apr 27 2025 00:02:42 GMT+0000 (Coordinated Universal Time)

1 47240U 20096A 25115.79916976 -.00000202 00000+0 00000+0 0 9995 2 47240 0.0124 170.4235 0004133 322.6694 283.4802 1.00272400 3265
UTC large
Height (km)
Speed (km/s)
/
Latitude / Longitude
Inclination (degrees)
Orbital Period (minutes)
Azimuth
Elevation
Range (km)
Doppler Factor

Next 0 passes for location: London (51.5072 / 0.1276)

Sorry there are no passes over London.